• In Uzbekistan
  • List of Countries
  • For 7 days
  • Water Temperature
  • Satellite Maps
  • Weather Map
  • Weather Widgets
  • user-avatar
    Login

    Hourly Weather Albany

    Today, 26 April, Wednesday

    Time Temperature Precipitation Wind Pressure Humidity
    00:00 +12°C° 0 mm 1 mps 766 mmHg 92%
    01:00 +12°C° 0 mm 1 mps 766 mmHg 92%
    02:00 +12°C° 0 mm 1 mps 766 mmHg 93%
    03:00 +12°C° 0 mm 1 mps 766 mmHg 93%
    04:00 +13°C° 0 mm 2 mps 766 mmHg 93%
    05:00 +13°C° 0 mm 2 mps 766 mmHg 93%
    06:00 +13°C° 0 mm 2 mps 766 mmHg 91%
    07:00 +14°C° 0 mm 2 mps 766 mmHg 88%
    08:00 +15°C° 0 mm 2 mps 766 mmHg 85%
    09:00 +17°C° 0 mm 2 mps 766 mmHg 75%
    10:00 +19°C° 0 mm 2 mps 766 mmHg 66%
    11:00 +20°C° 0 mm 2 mps 766 mmHg 56%
    12:00 +21°C° 0 mm 2 mps 766 mmHg 52%
    13:00 +21°C° 0 mm 2 mps 766 mmHg 48%
    14:00 +23°C° 0 mm 2 mps 765 mmHg 45%
    15:00 +21°C° 0 mm 2 mps 765 mmHg 50%
    16:00 +20°C° 0 mm 2 mps 765 mmHg 55%
    17:00 +19°C° 0 mm 2 mps 765 mmHg 61%
    18:00 +18°C° 0 mm 2 mps 766 mmHg 67%
    19:00 +18°C° 0 mm 1 mps 766 mmHg 74%
    20:00 +15°C° 0 mm 1 mps 766 mmHg 80%
    21:00 +15°C° 0 mm 1 mps 766 mmHg 83%
    22:00 +14°C° 0 mm 1 mps 766 mmHg 86%
    23:00 +14°C° 0 mm 1 mps 766 mmHg 89%

    Tomorrow, 27 April, Thursday

    Time Temperature Precipitation Wind Pressure Humidity
    00:00 +14°C° 0 mm 1 mps 766 mmHg 88%
    01:00 +14°C° 0 mm 1 mps 766 mmHg 88%
    02:00 +15°C° 0 mm 2 mps 766 mmHg 87%
    03:00 +14°C° 0 mm 2 mps 766 mmHg 87%
    04:00 +14°C° 0 mm 2 mps 766 mmHg 88%
    05:00 +14°C° 0 mm 2 mps 766 mmHg 88%
    06:00 +15°C° 0 mm 2 mps 766 mmHg 85%
    07:00 +15°C° 0 mm 2 mps 766 mmHg 81%
    08:00 +16°C° 0 mm 2 mps 766 mmHg 78%
    09:00 +19°C° 0 mm 1 mps 766 mmHg 67%
    10:00 +22°C° 0 mm 1 mps 766 mmHg 57%
    11:00 +24°C° 0 mm 1 mps 766 mmHg 46%
    12:00 +24°C° 0 mm 1 mps 766 mmHg 46%
    13:00 +25°C° 0 mm 1 mps 765 mmHg 45%
    14:00 +25°C° 0 mm 1 mps 765 mmHg 45%
    15:00 +24°C° 0 mm 2 mps 765 mmHg 51%
    16:00 +21°C° 0 mm 2 mps 765 mmHg 57%
    17:00 +20°C° 0 mm 2 mps 765 mmHg 63%
    18:00 +19°C° 0 mm 2 mps 765 mmHg 71%
    19:00 +18°C° 0 mm 1 mps 765 mmHg 79%
    20:00 +16°C° 0 mm 1 mps 766 mmHg 86%
    21:00 +15°C° 0 mm 1 mps 766 mmHg 88%
    22:00 +15°C° 0 mm 1 mps 766 mmHg 89%
    23:00 +15°C° 0 mm 1 mps 766 mmHg 90%

    Day after tomorrow, 28 April, Friday

    Time Temperature Precipitation Wind Pressure Humidity
    00:00 +13°C° 0 mm 0 mps 766 mmHg 91%
    01:00 +13°C° 0 mm 0 mps 766 mmHg 91%
    02:00 +13°C° 0 mm 0 mps 766 mmHg 91%
    03:00 +13°C° 0 mm 0 mps 766 mmHg 92%
    04:00 +12°C° 0 mm 0 mps 766 mmHg 92%
    05:00 +12°C° 0 mm 0 mps 766 mmHg 92%
    06:00 +14°C° 0 mm 0 mps 766 mmHg 88%
    07:00 +16°C° 0 mm 1 mps 766 mmHg 84%
    08:00 +19°C° 0 mm 1 mps 767 mmHg 80%
    09:00 +21°C° 0 mm 1 mps 767 mmHg 72%
    10:00 +22°C° 0 mm 1 mps 767 mmHg 64%
    11:00 +24°C° 0 mm 1 mps 767 mmHg 55%
    12:00 +24°C° 0 mm 1 mps 766 mmHg 56%
    13:00 +24°C° 0 mm 2 mps 766 mmHg 56%
    14:00 +24°C° 0 mm 2 mps 765 mmHg 57%
    15:00 +23°C° 0 mm 2 mps 765 mmHg 62%
    16:00 +21°C° 0 mm 3 mps 765 mmHg 68%
    17:00 +20°C° 0 mm 3 mps 766 mmHg 74%
    18:00 +18°C° 0 mm 2 mps 766 mmHg 80%
    19:00 +17°C° 0 mm 2 mps 766 mmHg 87%
    20:00 +16°C° 0 mm 1 mps 767 mmHg 93%
    21:00 +16°C° 0 mm 1 mps 767 mmHg 94%
    22:00 +15°C° 0 mm 1 mps 767 mmHg 94%
    23:00 +15°C° 0 mm 1 mps 767 mmHg 94%

    29 April, Saturday

    Time Temperature Precipitation Wind Pressure Humidity
    00:00 +15°C° 0 mm 1 mps 767 mmHg 94%
    01:00 +15°C° 0 mm 1 mps 767 mmHg 95%
    02:00 +14°C° 0 mm 1 mps 766 mmHg 95%
    03:00 +14°C° 0 mm 1 mps 766 mmHg 95%
    04:00 +14°C° 0 mm 1 mps 766 mmHg 95%
    05:00 +14°C° 0 mm 1 mps 766 mmHg 95%
    06:00 +15°C° 0 mm 1 mps 766 mmHg 92%
    07:00 +16°C° 0 mm 1 mps 767 mmHg 88%
    08:00 +18°C° 0 mm 1 mps 767 mmHg 85%
    09:00 +20°C° 0 mm 1 mps 767 mmHg 75%
    10:00 +22°C° 0 mm 1 mps 767 mmHg 66%
    11:00 +22°C° 0 mm 0 mps 767 mmHg 56%
    12:00 +24°C° 0 mm 1 mps 766 mmHg 57%
    13:00 +24°C° 0 mm 1 mps 766 mmHg 57%
    14:00 +24°C° 0 mm 2 mps 765 mmHg 58%
    15:00 +23°C° 0 mm 2 mps 765 mmHg 64%
    16:00 +21°C° 0 mm 2 mps 765 mmHg 70%
    17:00 +20°C° 0 mm 2 mps 765 mmHg 76%
    18:00 +19°C° 0 mm 2 mps 766 mmHg 82%
    19:00 +18°C° 0 mm 2 mps 766 mmHg 88%
    20:00 +16°C° 0 mm 1 mps 766 mmHg 94%
    21:00 +16°C° 0 mm 1 mps 766 mmHg 95%
    22:00 +16°C° 0 mm 1 mps 766 mmHg 95%
    23:00 +15°C° 0 mm 1 mps 766 mmHg 95%

    30 April, Sunday

    Time Temperature Precipitation Wind Pressure Humidity
    00:00 +15°C° 0 mm 1 mps 766 mmHg 95%
    01:00 +15°C° 0 mm 1 mps 765 mmHg 95%
    02:00 +15°C° 0 mm 1 mps 765 mmHg 95%
    03:00 +15°C° 0 mm 2 mps 765 mmHg 95%
    04:00 +15°C° 0 mm 2 mps 765 mmHg 95%
    05:00 +15°C° 0 mm 2 mps 765 mmHg 95%
    06:00 +15°C° 0 mm 2 mps 765 mmHg 91%
    07:00 +16°C° 0 mm 3 mps 765 mmHg 88%
    08:00 +16°C° 0 mm 3 mps 765 mmHg 85%
    09:00 +18°C° 0 mm 3 mps 765 mmHg 77%
    10:00 +20°C° 0 mm 4 mps 765 mmHg 69%
    11:00 +22°C° 0 mm 4 mps 765 mmHg 61%
    12:00 +22°C° 0 mm 5 mps 764 mmHg 61%
    13:00 +22°C° 0 mm 5 mps 764 mmHg 60%
    14:00 +22°C° 0 mm 6 mps 763 mmHg 59%
    15:00 +21°C° 0 mm 5 mps 764 mmHg 66%
    16:00 +20°C° 0 mm 5 mps 764 mmHg 72%
    17:00 +19°C° 0 mm 5 mps 764 mmHg 78%
    18:00 +19°C° 0.1 mm 5 mps 765 mmHg 82%
    19:00 +17°C° 0.1 mm 5 mps 765 mmHg 85%
    20:00 +16°C° 0.1 mm 5 mps 766 mmHg 89%
    21:00 +17°C° 0 mm 4 mps 766 mmHg 86%
    22:00 +17°C° 0 mm 4 mps 766 mmHg 83%
    23:00 +15°C° 0 mm 4 mps 766 mmHg 80%

    1 May, Monday

    Time Temperature Precipitation Wind Pressure Humidity
    00:00 +15°C° 0 mm 4 mps 766 mmHg 78%
    01:00 +15°C° 0 mm 4 mps 766 mmHg 76%
    02:00 +14°C° 0 mm 3 mps 766 mmHg 73%
    03:00 +14°C° 0 mm 3 mps 766 mmHg 72%
    04:00 +14°C° 0 mm 3 mps 766 mmHg 70%
    05:00 +14°C° 0 mm 3 mps 766 mmHg 68%
    06:00 +14°C° 0 mm 3 mps 767 mmHg 67%
    07:00 +14°C° 0 mm 3 mps 767 mmHg 67%
    08:00 +14°C° 0 mm 3 mps 767 mmHg 66%
    09:00 +14°C° 0 mm 3 mps 767 mmHg 64%
    10:00 +14°C° 0 mm 3 mps 767 mmHg 63%
    11:00 +16°C° 0 mm 3 mps 767 mmHg 61%
    12:00 +16°C° 0 mm 3 mps 767 mmHg 59%
    13:00 +17°C° 0 mm 3 mps 766 mmHg 57%
    14:00 +17°C° 0 mm 3 mps 766 mmHg 54%
    15:00 +17°C° 0 mm 3 mps 766 mmHg 57%
    16:00 +16°C° 0 mm 3 mps 766 mmHg 60%
    17:00 +14°C° 0 mm 3 mps 766 mmHg 63%
    18:00 +14°C° 0 mm 3 mps 767 mmHg 67%
    19:00 +13°C° 0 mm 3 mps 767 mmHg 71%
    20:00 +12°C° 0 mm 3 mps 767 mmHg 75%
    21:00 +12°C° 0 mm 3 mps 767 mmHg 76%
    22:00 +11°C° 0 mm 3 mps 767 mmHg 77%
    23:00 +11°C° 0 mm 3 mps 767 mmHg 78%
    Show more